Temp
27 26 25 22 24 22 25 26 27 26 26 26 27 26 25 24 24 20 21 21 21 21 21 21 21 21 20 20 20 20 20 20 20 19 19 19 19 19 19 19 19 19 19 18 18 18 18 18 18
28 27 26 26 23 23 24 27 25 26 27 26 25 24 23 21 21 20 20 20 21 21 21 21 21 20 20 20 20 20 20 20 20 20 19 19 19 19 19 19 19 19 18 18 18 18 18 18 18
29 28 28 24 22 24 25 26 26 27 27 26 26 25 23 20 21 21 21 21 21 21 21 21 21 20 20 20 20 20 20 20 20 20 20 19 19 19 19 19 19 19 18 18 18 19 19 18 18
29 29 28 24 25 27 27 27 27 27 26 26 25 24 24 22 21 22 21 21 21 21 21 21 21 20 20 20 20 20 20 20 19 19 19 19 19 19 19 19 19 19 18 18 18 19 18 18 18
29 27 22 23 27 29 29 28 28 27 26 25 25 23 22 23 23 22 22 21 22 21 21 21 21 21 21 21 20 20 20 20 20 20 20 19 19 18 19 19 18 18 18 18 18 19 18 17 18
27 27 22 23 24 30 30 29 28 27 26 24 24 23 22 23 22 22 22 21 22 22 22 21 21 21 21 21 20 20 20 20 20 20 20 19 19 19 19 19 18 18 18 18 18 18 18 17 17
23 21 22 24 26 29 30 31 28 26 25 25 24 23 22 21 21 23 23 22 22 22 22 22 21 21 21 21 20 20 20 20 20 19 20 19 19 19 19 19 18 18 18 18 18 18 18 18 18
29 21 24 25 27 28 30 30 28 27 27 25 25 23 23 22 22 22 22 22 22 22 22 22 21 21 21 21 21 20 20 20 20 20 20 20 19 19 19 19 18 18 18 18 18 18 18 18 18
30 23 26 27 28 29 30 29 28 28 26 26 26 25 24 23 23 22 22 22 22 21 22 21 21 21 21 20 20 20 20 20 20 20 20 20 19 19 19 19 18 18 18 18 18 18 18 18 18
25 22 25 27 29 29 30 29 29 27 26 25 25 24 23 23 22 22 21 21 21 21 21 21 21 21 21 21 20 20 19 19 20 19 19 19 19 19 18 18 18 18 18 19 18 18 18 18 18
26 24 25 27 28 30 30 29 29 26 24 25 24 24 23 23 23 22 22 22 22 21 21 21 21 21 21 21 21 20 20 19 20 19 19 19 18 19 18 18 18 18 18 19 19 18 18 18 18
29 29 28 31 32 32 29 29 28 29 27 26 26 24 24 23 23 22 22 21 21 21 21 21 21 21 21 20 20 20 20 20 20 20 19 19 18 18 18 18 18 18 18 18 18 18 18 18 18
28 31 31 32 34 34 31 30 29 29 28 25 25 24 24 24 23 23 23 23 22 22 22 22 21 21 20 20 20 19 19 19 19 19 19 19 19 18 18 18 18 18 18 18 18 18 18 18 18
31 32 32 34 33 33 31 29 30 28 27 25 25 25 24 24 24 24 23 23 22 22 22 22 20 19 18 18 18 18 18 19 19 18 19 19 18 19 18 18 18 18 18 18 18 18 18 18 18
32 31 29 31 32 31 31 29 27 28 27 25 25 25 25 25 24 24 24 24 23 23 22 20 19 19 18 19 19 18 18 18 18 18 18 19 19 19 19 18 18 18 18 18 18 18 18 18 17
28 27 27 29 30 33 30 27 28 27 26 26 25 25 25 25 25 25 25 24 24 23 22 21 20 20 20 19 18 19 19 18 18 19 18 19 19 19 18 18 18 18 18 18 18 18 18 17 17
23 26 27 28 30 31 30 28 29 27 27 26 26 25 26 25 25 25 25 24 24 23 22 21 20 19 20 18 19 19 19 19 19 19 19 19 19 19 18 18 17 17 17 18 18 18 18 18 17
26 27 28 28 31 31 29 29 29 29 27 26 26 26 26 26 25 25 25 24 24 23 22 22 20 20 20 19 19 18 19 20 19 19 18 18 19 18 17 17 17 17 17 17 18 18 18 18 18
27 28 28 30 31 31 30 30 29 29 29 27 26 26 27 26 26 25 24 24 23 23 22 22 21 21 20 19 18 18 20 20 20 19 18 18 18 18 18 18 17 17 17 17 17 17 17 17 17
30 29 28 29 31 30 30 30 28 27 28 28 27 26 27 26 26 25 24 24 23 23 23 22 21 21 21 19 18 20 21 21 20 19 19 17 18 18 17 17 17 16 16 16 16 16 16 17 17
28 29 28 28 29 28 28 26 27 28 27 28 27 27 27 26 25 24 24 24 23 23 22 22 21 21 20 20 20 21 21 22 20 19 18 18 18 18 17 17 17 17 16 16 16 16 16 16 16
28 29 29 29 26 26 26 23 24 23 25 26 26 26 27 26 25 25 24 23 23 23 22 21 21 21 20 20 21 20 19 18 18 18 18 18 18 17 17 17 17 17 17 17 16 16 16 16 16
27 29 30 29 25 25 25 23 23 23 25 25 25 27 27 26 26 25 24 23 23 22 21 20 20 20 20 20 19 18 18 18 17 17 17 18 17 17 17 16 17 17 17 16 16 16 16 16 16
31 27 23 21 21 22 24 23 23 25 27 25 25 26 26 26 25 24 24 23 22 21 20 20 20 19 19 19 18 18 17 17 17 18 18 17 17 17 17 17 16 17 17 16 17 17 16 16 16
27 21 19 22 21 22 23 23 22 25 26 27 25 27 27 26 25 24 23 22 22 21 20 19 19 19 19 18 18 17 17 17 18 18 18 17 17 17 17 16 16 17 16 16 16 17 16 16 16
26 22 19 23 21 22 23 24 24 24 26 30 30 28 26 26 25 24 23 22 21 21 20 19 19 18 18 17 17 17 17 18 18 17 17 17 17 17 15 15 16 16 16 16 17 17 17 17 16
27 24 23 22 21 21 21 25 25 24 21 21 25 25 25 25 25 24 22 22 22 21 20 19 18 18 17 17 18 18 18 17 17 17 17 17 16 15 15 15 15 15 16 16 17 17 17 16 16
27 26 25 19 24 24 21 24 22 22 22 22 21 22 22 21 22 23 22 23 21 21 20 19 19 19 19 18 17 18 17 17 17 16 17 17 15 15 15 14 15 15 16 16 16 17 16 16 16
26 25 22 20 19 21 21 21 20 19 20 20 21 23 24 24 22 21 23 22 21 20 20 19 18 17 17 18 17 17 17 17 16 16 16 15 15 15 15 13 15 15 16 15 15 16 16 16 16
25 25 21 20 23 19 19 19 18 18 18 22 25 24 28 25 23 21 22 21 20 19 19 18 18 18 17 17 17 17 17 17 16 16 14 13 15 15 14 15 15 16 15 15 15 15 15 16 16
Height
1506 1504 1503 1504 1515 1519 1524 1519 1508 1513 1513 1513 1511 1513 1515 1514 1517 1534 1527 1533 1537 1540 1543 1546 1548 1549 1551 1552 1553 1554 1555 1556 1557 1558 1559 1559 1561 1561 1562 1563 1565 1566 1567 1567 1567 1568 1568 1568 1568
1504 1503 1503 1503 1525 1537 1533 1514 1519 1512 1513 1512 1514 1516 1517 1524 1520 1524 1530 1534 1538 1541 1544 1546 1549 1551 1552 1553 1554 1555 1556 1557 1557 1558 1559 1560 1562 1563 1564 1565 1566 1567 1567 1568 1568 1568 1568 1568 1569
1501 1500 1503 1510 1525 1533 1531 1515 1515 1515 1512 1511 1514 1518 1520 1524 1525 1528 1532 1535 1539 1542 1545 1547 1550 1552 1553 1554 1555 1556 1557 1558 1558 1559 1560 1561 1562 1564 1565 1566 1567 1568 1568 1568 1569 1569 1568 1568 1568
1501 1503 1506 1519 1523 1512 1511 1512 1511 1514 1516 1515 1517 1521 1526 1527 1525 1528 1533 1536 1540 1543 1545 1548 1550 1552 1553 1554 1555 1557 1557 1559 1560 1561 1561 1562 1563 1564 1565 1567 1568 1568 1568 1568 1569 1569 1568 1569 1569
1503 1506 1522 1528 1516 1508 1507 1507 1508 1512 1516 1518 1519 1525 1527 1529 1530 1532 1534 1537 1540 1543 1547 1548 1550 1552 1554 1555 1556 1557 1558 1559 1561 1562 1563 1563 1564 1565 1566 1567 1568 1568 1568 1569 1569 1569 1569 1570 1572
1506 1510 1535 1542 1527 1507 1507 1508 1509 1512 1517 1520 1522 1524 1531 1532 1531 1535 1537 1540 1543 1544 1547 1549 1550 1552 1554 1555 1557 1558 1559 1561 1562 1563 1564 1565 1565 1566 1567 1568 1569 1569 1569 1569 1569 1569 1570 1571 1573
1510 1519 1535 1528 1524 1513 1508 1506 1509 1513 1516 1520 1522 1527 1534 1535 1534 1537 1539 1542 1544 1545 1547 1549 1551 1552 1554 1556 1558 1559 1560 1561 1563 1564 1565 1566 1567 1568 1568 1568 1569 1570 1570 1569 1569 1569 1570 1572 1574
1510 1513 1522 1522 1520 1517 1506 1506 1509 1510 1515 1518 1519 1526 1532 1533 1534 1538 1541 1543 1545 1546 1548 1549 1551 1553 1554 1556 1558 1559 1560 1561 1562 1563 1564 1565 1566 1568 1569 1569 1570 1570 1570 1570 1570 1569 1570 1572 1572
1508 1516 1524 1518 1516 1512 1507 1506 1511 1513 1514 1518 1518 1520 1529 1532 1535 1538 1540 1543 1544 1546 1548 1549 1551 1553 1555 1556 1558 1559 1561 1562 1563 1564 1565 1565 1566 1568 1568 1569 1570 1570 1570 1570 1569 1569 1569 1571 1571
1512 1526 1520 1507 1506 1511 1505 1505 1509 1514 1516 1519 1519 1526 1530 1533 1535 1537 1540 1542 1544 1545 1547 1549 1551 1553 1555 1556 1558 1560 1561 1562 1563 1564 1564 1566 1566 1567 1569 1570 1570 1570 1569 1569 1569 1570 1570 1570 1572
1513 1521 1508 1505 1504 1508 1507 1507 1509 1512 1519 1514 1518 1524 1530 1533 1535 1537 1539 1541 1542 1545 1546 1548 1550 1552 1554 1555 1556 1558 1560 1561 1562 1563 1563 1564 1565 1567 1567 1568 1569 1570 1569 1569 1568 1570 1570 1569 1570
1512 1507 1506 1501 1502 1502 1504 1508 1509 1508 1510 1512 1515 1521 1527 1532 1534 1536 1538 1539 1541 1543 1546 1549 1551 1553 1555 1555 1556 1558 1558 1559 1560 1561 1562 1563 1564 1564 1566 1567 1567 1568 1567 1568 1568 1568 1569 1569 1569
1510 1501 1501 1501 1500 1499 1504 1503 1505 1509 1512 1517 1520 1525 1528 1532 1535 1537 1538 1539 1540 1542 1546 1548 1550 1553 1555 1556 1557 1557 1556 1557 1559 1560 1560 1561 1560 1563 1563 1565 1565 1564 1566 1566 1567 1567 1568 1568 1568
1504 1501 1499 1497 1500 1500 1500 1504 1505 1511 1513 1517 1519 1523 1526 1530 1533 1537 1538 1538 1540 1543 1544 1546 1551 1555 1556 1557 1557 1557 1556 1557 1557 1559 1559 1560 1560 1560 1561 1562 1563 1563 1563 1565 1565 1565 1566 1566 1567
1501 1503 1501 1498 1498 1501 1499 1508 1506 1505 1512 1515 1518 1520 1524 1526 1531 1533 1534 1536 1540 1540 1543 1548 1549 1550 1552 1555 1555 1554 1553 1554 1554 1556 1558 1559 1559 1559 1560 1561 1561 1561 1561 1561 1560 1560 1562 1563 1563
1507 1509 1521 1500 1497 1497 1499 1520 1504 1506 1509 1513 1516 1518 1521 1524 1527 1531 1532 1534 1536 1540 1541 1543 1544 1545 1547 1551 1553 1553 1551 1551 1552 1554 1555 1556 1557 1557 1558 1558 1558 1558 1558 1557 1557 1557 1557 1558 1559
1521 1531 1522 1506 1490 1493 1499 1511 1503 1507 1507 1510 1513 1515 1518 1523 1527 1530 1531 1533 1534 1537 1539 1537 1537 1545 1543 1543 1546 1549 1549 1548 1549 1551 1553 1555 1555 1555 1555 1556 1554 1554 1554 1554 1553 1553 1553 1554 1556
1532 1523 1513 1511 1497 1495 1503 1503 1499 1501 1505 1507 1510 1513 1516 1519 1522 1527 1530 1533 1533 1536 1539 1541 1537 1540 1541 1538 1535 1539 1544 1545 1548 1548 1549 1552 1552 1553 1553 1552 1551 1551 1549 1549 1549 1549 1548 1550 1551
1514 1513 1515 1501 1493 1496 1499 1499 1497 1501 1504 1507 1507 1509 1513 1517 1522 1526 1528 1530 1533 1535 1537 1539 1539 1538 1537 1533 1528 1532 1539 1542 1546 1547 1547 1549 1551 1551 1550 1547 1546 1545 1544 1544 1543 1544 1544 1545 1547
1505 1512 1514 1502 1494 1500 1499 1498 1496 1495 1496 1498 1503 1507 1512 1518 1521 1525 1528 1528 1531 1533 1535 1537 1538 1537 1538 1534 1527 1532 1536 1540 1543 1544 1545 1546 1548 1548 1546 1543 1542 1541 1540 1539 1539 1540 1541 1542 1543
1511 1513 1512 1514 1501 1500 1503 1513 1503 1498 1494 1498 1501 1505 1509 1513 1517 1523 1526 1527 1531 1533 1535 1536 1537 1538 1538 1536 1531 1532 1535 1538 1541 1543 1544 1546 1546 1544 1543 1541 1539 1538 1535 1534 1534 1535 1535 1537 1538
1516 1502 1504 1506 1516 1533 1508 1549 1513 1502 1494 1498 1503 1505 1507 1511 1516 1521 1524 1527 1531 1531 1533 1536 1538 1539 1539 1537 1537 1539 1541 1541 1542 1544 1545 1544 1543 1541 1540 1538 1536 1534 1530 1529 1530 1529 1530 1532 1533
1510 1498 1501 1502 1518 1521 1523 1539 1522 1505 1505 1506 1504 1505 1508 1511 1514 1520 1523 1527 1530 1533 1534 1536 1539 1541 1542 1543 1543 1543 1544 1543 1544 1545 1544 1542 1541 1539 1537 1535 1533 1530 1527 1526 1524 1525 1526 1528 1529
1494 1503 1510 1519 1529 1555 1529 1535 1532 1515 1503 1502 1505 1508 1510 1513 1515 1522 1525 1529 1530 1533 1536 1537 1539 1541 1543 1544 1545 1545 1545 1545 1545 1545 1544 1541 1539 1537 1534 1532 1530 1528 1527 1524 1522 1522 1523 1524 1526
1500 1526 1562 1558 1562 1562 1526 1535 1527 1504 1497 1494 1502 1507 1508 1511 1514 1520 1523 1527 1531 1533 1535 1538 1539 1540 1542 1544 1546 1546 1547 1546 1545 1544 1542 1540 1537 1535 1533 1531 1528 1527 1527 1524 1521 1519 1520 1522 1523
1508 1521 1559 1564 1569 1553 1525 1538 1522 1501 1497 1493 1495 1499 1505 1509 1513 1518 1523 1529 1530 1532 1536 1539 1540 1540 1541 1542 1544 1546 1548 1546 1544 1542 1540 1539 1537 1535 1533 1530 1529 1527 1525 1523 1521 1521 1521 1521 1522
1506 1523 1511 1539 1542 1553 1543 1519 1509 1504 1507 1504 1506 1508 1508 1509 1513 1518 1525 1531 1530 1533 1534 1538 1543 1544 1544 1545 1544 1545 1546 1545 1544 1542 1540 1539 1537 1536 1533 1532 1529 1529 1525 1524 1522 1521 1521 1521 1521
1497 1499 1526 1544 1552 1553 1551 1532 1536 1522 1515 1505 1513 1514 1514 1517 1520 1518 1525 1527 1528 1532 1537 1539 1540 1541 1546 1547 1546 1545 1545 1545 1545 1542 1540 1539 1537 1535 1534 1533 1531 1529 1527 1525 1524 1521 1520 1521 1520
1503 1510 1518 1528 1542 1559 1564 1552 1526 1521 1515 1511 1516 1512 1514 1518 1520 1519 1521 1525 1527 1532 1538 1540 1540 1539 1542 1545 1546 1546 1544 1545 1544 1542 1541 1539 1539 1537 1536 1533 1532 1530 1528 1527 1526 1523 1523 1523 1522
1493 1499 1513 1542 1538 1541 1547 1551 1523 1517 1510 1506 1503 1506 1503 1507 1509 1520 1525 1522 1527 1533 1537 1537 1537 1536 1540 1544 1544 1544 1543 1544 1544 1542 1541 1543 1542 1539 1538 1535 1532 1532 1531 1529 1527 1525 1524 1525 1524
Wind_Speed
15 11 2 5 4 5 3 5 6 9 10 22 17 10 6 10 2 4 18 25 27 26 24 23 21 20 19 17 16 16 16 16 16 16 14 13 13 14 14 14 12 10 9 10 9 9 11 10 12
11 7 5 2 4 6 3 9 15 13 18 29 27 22 15 4 13 21 28 24 27 26 24 23 21 19 17 16 15 15 15 15 15 15 13 12 12 13 13 11 10 9 10 9 8 8 9 10 13
10 12 3 3 3 6 5 14 14 15 20 16 8 10 7 8 23 29 23 28 29 26 24 22 20 18 17 15 15 14 14 14 14 13 12 12 12 12 10 9 8 8 9 8 7 7 8 11 14
10 5 5 3 9 4 10 16 22 18 17 15 15 8 14 8 25 24 24 28 29 26 24 22 19 17 16 15 14 13 12 12 12 11 11 11 10 9 9 8 8 7 7 8 7 7 8 11 15
10 7 5 5 4 6 6 26 22 9 9 16 10 6 6 14 21 23 22 30 27 25 22 20 18 16 15 14 14 13 12 11 10 10 10 9 10 9 8 6 6 6 7 7 7 5 6 11 15
6 5 5 4 7 7 5 21 19 18 20 21 19 16 9 23 23 24 23 26 23 21 19 18 17 16 15 14 13 12 11 10 9 9 9 9 8 7 6 5 5 5 5 5 5 5 5 8 14
8 4 4 5 4 3 8 18 18 20 19 10 23 8 20 25 26 21 18 21 20 20 17 16 16 15 14 13 12 12 11 10 9 8 8 8 6 5 5 5 4 4 4 5 5 5 5 8 13
3 4 3 4 1 5 8 11 25 25 7 25 20 8 17 27 26 23 21 19 18 17 17 17 15 14 14 14 12 11 10 9 8 8 8 7 6 4 3 3 3 3 2 3 4 4 5 9 14
8 4 3 2 3 4 17 11 12 14 23 7 9 26 31 26 24 27 27 16 17 16 16 17 16 15 14 13 12 11 10 8 7 6 6 7 8 5 4 3 2 1 0 3 4 5 6 8 12
4 3 8 5 1 5 15 23 15 9 17 13 24 29 32 28 26 28 27 25 21 19 18 16 16 14 14 13 12 11 10 8 7 7 6 6 8 4 3 4 3 2 3 5 5 5 7 8 11
6 5 6 10 21 16 11 16 7 21 0 27 34 38 36 29 26 22 22 20 18 16 16 15 12 12 14 14 13 11 8 8 8 8 8 9 9 7 7 8 5 5 4 6 7 6 6 8 9
4 12 10 7 10 16 10 9 8 9 11 29 30 36 37 32 28 24 21 20 20 19 14 11 10 8 9 12 11 9 8 7 7 7 9 9 8 8 7 10 6 9 7 7 8 9 6 9 11
4 4 11 10 7 6 19 12 9 8 19 30 30 33 32 31 30 23 16 20 18 18 14 11 10 8 7 8 9 9 7 8 7 9 8 9 9 9 10 12 11 11 11 12 12 11 10 9 10
7 4 6 4 5 5 7 6 15 14 32 32 32 34 32 29 28 19 21 24 22 19 15 13 12 9 8 8 9 9 8 8 8 10 7 9 11 9 11 13 14 17 16 16 15 14 12 14 13
5 3 7 12 2 4 22 4 8 34 36 32 34 34 33 31 26 21 20 23 19 20 19 12 15 15 10 8 11 11 12 12 13 12 13 10 10 10 12 13 13 17 20 24 22 21 20 21 20
6 5 2 9 3 8 3 6 2 35 34 31 32 34 33 32 29 21 20 20 17 21 23 18 16 13 7 16 13 15 13 13 13 12 13 12 14 14 16 15 15 12 16 20 23 25 26 21 21
6 5 6 10 15 6 4 4 6 30 31 29 31 32 33 32 29 25 20 17 14 23 22 21 13 6 12 12 17 16 14 15 14 12 10 9 13 14 16 17 18 16 16 17 18 18 18 21 18
5 5 3 5 3 5 2 5 5 29 28 29 30 31 31 33 32 28 23 18 16 22 21 13 7 11 10 16 11 23 10 13 10 8 7 10 10 11 14 15 18 18 18 18 20 18 17 21 19
6 1 5 3 4 4 5 4 8 15 18 20 26 31 32 32 28 25 25 18 22 22 21 10 8 2 3 9 22 16 11 11 11 9 6 6 10 14 15 16 17 15 17 19 20 19 18 18 19
3 3 6 4 4 1 4 5 6 10 19 30 29 30 34 29 27 26 23 22 21 17 14 9 6 5 5 8 19 15 5 9 7 7 8 6 11 11 13 14 13 14 14 14 16 21 22 23 22
4 3 4 8 2 4 4 8 7 3 10 23 28 33 35 32 32 29 25 21 18 16 12 8 4 3 13 9 17 22 15 15 3 3 6 8 10 9 13 14 16 19 16 12 13 16 20 22 24
2 2 3 4 5 1 4 4 6 9 6 13 19 30 35 33 33 31 27 21 18 14 11 7 2 8 10 10 18 13 9 3 1 3 7 9 9 11 14 16 21 18 13 13 12 12 16 19 22
8 1 4 3 4 5 9 4 7 6 7 2 11 27 30 32 33 31 26 21 17 11 8 5 2 10 11 13 13 9 6 6 6 5 8 10 8 12 16 20 18 12 9 10 10 10 13 16 19
1 5 8 6 3 4 5 4 5 1 4 5 7 15 21 27 30 29 22 16 12 10 7 6 9 10 12 11 9 6 5 8 8 9 9 7 11 15 16 13 10 7 5 6 6 8 11 12 14
5 7 4 4 4 5 1 2 8 5 7 9 11 18 24 27 30 30 22 19 16 13 8 10 10 13 13 11 7 6 7 8 8 6 6 7 10 10 7 9 7 5 3 5 4 0 6 8 11
4 8 6 4 3 5 5 3 5 5 9 6 12 15 25 27 33 28 23 20 15 13 10 10 13 12 15 12 12 13 10 7 5 5 5 7 7 7 9 8 8 9 2 2 5 4 2 5 6
2 3 6 5 1 3 3 4 5 9 14 24 15 12 27 29 30 27 24 17 14 14 12 10 15 16 16 15 15 13 7 4 4 2 5 5 5 8 8 7 7 7 6 4 4 3 3 2 4
8 4 2 3 1 2 5 2 3 6 3 9 13 12 9 6 22 28 23 16 14 14 12 10 12 15 11 11 12 10 6 3 1 3 4 3 7 8 7 7 6 4 6 8 8 9 7 4 5
1 2 6 5 5 5 2 5 6 6 3 5 8 20 15 5 15 24 24 16 10 15 12 12 13 15 10 9 12 10 6 3 1 4 3 7 8 7 8 9 8 7 6 8 8 10 10 8 7
4 6 6 5 5 2 5 4 7 5 7 7 6 14 11 6 11 22 23 17 16 16 15 16 14 13 16 12 12 10 4 2 1 3 8 5 7 9 10 10 10 10 11 12 12 13 14 12 10
Wind_Direction
356 352 10 148 69 68 56 50 117 100 68 80 91 78 85 47 111 157 149 163 163 157 155 155 150 147 144 141 135 135 136 134 137 140 140 138 141 143 143 144 141 132 127 134 124 123 128 122 127
19 37 63 55 91 85 300 90 84 97 119 99 95 86 64 73 101 134 153 166 163 153 152 153 154 150 147 143 141 139 140 139 139 140 139 137 138 142 141 141 139 132 128 126 126 130 131 130 135
14 69 93 84 122 124 143 119 121 118 108 99 94 74 85 108 125 143 159 159 159 153 153 153 153 153 151 150 148 145 145 142 141 142 142 141 142 143 143 146 145 138 137 132 133 130 136 140 146
15 57 55 74 122 200 122 135 125 116 95 90 101 71 91 141 144 154 156 164 156 153 154 152 155 156 155 153 152 151 147 145 144 145 146 142 143 143 147 154 155 156 150 147 143 142 147 153 154
10 45 40 355 86 115 127 143 133 101 90 104 104 91 81 141 134 133 141 157 160 156 155 155 157 157 156 156 155 153 151 150 149 151 144 144 148 146 148 154 158 162 156 158 158 149 152 162 159
65 63 44 342 311 118 109 134 122 113 120 107 96 107 106 130 138 137 150 155 158 157 159 161 162 161 160 159 158 157 155 155 158 153 151 152 152 148 144 151 152 151 157 165 173 167 147 163 159
102 90 181 224 314 342 151 132 131 134 139 132 132 115 144 143 148 141 142 145 153 161 165 171 169 166 164 162 161 161 159 160 160 158 153 150 154 158 153 142 145 153 172 183 183 190 162 150 159
61 109 344 127 81 264 135 112 150 144 142 145 130 139 160 158 167 159 157 158 162 167 173 176 178 174 172 169 169 168 166 168 165 162 159 154 155 154 149 138 132 134 185 215 216 200 186 161 173
160 77 97 222 306 287 140 115 89 134 136 163 195 149 156 160 156 162 162 177 173 178 189 183 182 183 180 176 175 179 178 179 176 173 169 165 161 145 119 137 113 102 234 241 221 210 218 177 176
91 92 221 209 101 213 153 127 136 112 109 101 118 141 156 160 159 165 172 173 173 174 180 191 193 195 192 187 188 188 191 189 188 187 187 190 180 178 186 188 223 248 272 255 242 213 217 211 188
163 181 206 265 252 205 151 149 114 123 71 151 144 151 161 168 169 175 179 182 184 178 175 179 187 206 210 204 196 197 207 204 211 213 200 192 198 228 233 224 232 263 253 237 248 223 221 230 208
199 205 170 245 168 131 159 145 141 174 186 166 158 161 168 174 178 183 188 190 189 193 205 198 197 209 202 205 202 198 215 225 223 225 218 224 222 256 265 245 246 249 255 250 240 233 240 228 216
270 312 229 264 147 140 145 199 159 199 161 160 156 164 174 181 183 195 209 215 218 220 218 214 212 228 229 229 219 221 224 228 238 234 241 248 238 250 253 260 260 253 237 255 249 246 244 248 236
273 343 315 333 223 205 113 146 141 146 159 161 164 170 182 187 190 198 205 209 213 214 215 211 204 198 213 241 247 237 248 253 252 249 244 279 269 255 256 251 259 263 254 256 255 254 264 265 231
323 6 343 304 314 143 113 85 172 163 166 162 173 177 184 192 194 202 208 211 213 213 211 200 195 193 205 258 238 224 230 236 242 248 263 267 256 266 274 258 259 254 260 259 261 256 262 264 238
11 49 340 268 214 224 117 219 226 169 164 172 180 184 189 194 195 194 208 206 208 206 202 204 201 196 222 235 245 267 248 230 245 245 243 268 268 268 263 262 272 265 257 263 261 261 262 248 240
356 260 225 302 193 155 134 218 195 176 174 177 183 188 193 193 196 189 192 195 204 203 197 208 187 177 308 242 247 262 254 246 230 258 244 269 275 276 266 273 281 276 257 265 266 268 247 237 241
259 304 271 224 238 149 120 209 198 178 178 180 187 190 193 190 192 187 198 194 209 205 203 233 229 226 292 181 249 235 261 241 228 260 260 278 287 284 280 288 288 284 278 270 258 264 247 240 255
247 290 331 327 234 122 209 188 198 181 181 181 188 190 190 188 188 190 191 196 195 200 212 252 293 293 28 240 261 204 235 203 203 227 263 284 280 293 300 307 297 289 280 269 267 257 250 249 250
28 355 314 320 354 25 230 289 197 165 184 184 183 179 180 177 179 184 185 196 194 208 221 249 269 269 102 77 99 143 235 185 214 243 252 280 296 309 308 309 313 302 289 270 260 254 249 245 249
326 262 303 258 341 11 61 331 340 319 185 185 183 180 180 177 171 172 172 175 181 196 219 238 236 187 139 128 141 162 136 178 298 318 326 301 304 298 298 305 306 306 292 279 267 250 244 242 242
257 203 255 42 59 287 56 285 322 317 185 176 165 177 184 183 179 184 183 179 187 205 228 235 227 152 137 145 150 163 179 211 280 337 275 289 303 293 300 302 309 306 294 279 277 251 239 236 237
236 303 306 19 67 43 347 62 275 345 60 60 180 187 187 190 183 184 188 185 199 214 223 249 186 159 159 146 167 161 188 183 179 229 264 274 285 302 308 312 308 306 298 296 279 240 234 237 233
189 49 30 46 69 15 242 123 283 212 209 168 182 187 192 192 184 184 185 185 183 183 207 219 172 178 174 164 170 179 150 165 191 237 255 267 298 307 314 313 323 323 321 325 297 254 235 238 236
73 57 358 357 19 219 33 90 241 269 212 174 150 186 194 192 186 181 183 184 182 182 191 179 180 175 170 169 185 181 177 194 229 269 278 297 313 322 325 344 350 356 322 14 29 327 215 231 246
199 144 151 198 204 252 324 243 267 314 307 165 177 184 179 185 183 180 185 183 183 190 192 184 185 183 174 171 178 187 191 215 250 307 316 329 339 12 8 7 10 8 341 33 67 94 194 240 234
231 141 191 120 2 54 276 332 342 26 24 37 51 149 176 183 186 182 175 178 189 196 198 197 194 198 190 181 184 183 185 235 291 331 356 1 36 28 16 16 16 21 40 30 41 71 105 140 166
154 173 46 8 122 283 318 206 236 27 325 83 49 79 88 121 180 174 171 180 186 199 200 195 193 177 197 183 186 169 178 206 158 360 15 29 62 45 24 26 38 46 51 64 71 78 90 115 124
320 307 60 119 134 164 183 270 301 184 146 113 157 101 116 109 196 180 173 174 178 187 194 190 193 177 193 188 172 153 146 119 70 20 75 75 63 50 46 54 53 67 63 66 78 81 79 72 81
178 210 141 125 266 180 150 262 310 231 174 160 161 154 158 196 183 184 186 164 157 183 188 201 209 171 183 188 177 155 150 107 32 8 96 91 83 65 55 53 62 75 79 80 79 79 82 85 86